This is the latest recevied weather packets stored in our database for station/object N6DZK. If no packets are shown the sender has not sent any weather packets the latest 10 day(s).
| Time | Temp. | Humidity | Pressure | Rain* | Wind** | Luminosity | Snow |
|---|---|---|---|---|---|---|---|
| 1778000686 | 15° C | 70% | 1016.1 hPa | 0 mm | - | 194 W/m² | - |
| 1778000382 | 15° C | 70% | 1016.1 hPa | 0 mm | - | 188 W/m² | - |
| 1778000078 | 14.44° C | 72% | 1016.2 hPa | 0 mm | - | 247 W/m² | - |
| 1777999774 | 14.44° C | 69% | 1016.2 hPa | 0 mm | - | 263 W/m² | - |
| 1777999471 | 14.44° C | 72% | 1016.4 hPa | 0 mm | - | 269 W/m² | - |
| 1777999168 | 13.89° C | 71% | 1016.2 hPa | 0 mm | - | 243 W/m² | - |
| 1777998867 | 13.89° C | 71% | 1016.2 hPa | 0 mm | - | 207 W/m² | - |
| 1777998566 | 13.89° C | 73% | 1016.1 hPa | 0 mm | - | 181 W/m² | - |
| 1777998261 | 13.89° C | 72% | 1016 hPa | 0 mm | - | 133 W/m² | - |
| 1777997958 | 13.89° C | 72% | 1016 hPa | 0 mm | - | 126 W/m² | - |
| 1777997655 | 13.89° C | 72% | 1015.9 hPa | 0 mm | - | 125 W/m² | - |
| 1777997353 | 13.89° C | 74% | 1015.9 hPa | 0 mm | - | 130 W/m² | - |
| 1777997051 | 13.33° C | 73% | 1015.8 hPa | 0 mm | - | 112 W/m² | - |
| 1777996747 | 13.33° C | 74% | 1016 hPa | 0 mm | - | 104 W/m² | - |
| 1777996443 | 13.33° C | 75% | 1016 hPa | 0 mm | - | 110 W/m² | - |
| 1777996140 | 12.78° C | 74% | 1015.9 hPa | 0 mm | - | 113 W/m² | - |
| 1777995835 | 12.78° C | 75% | 1016 hPa | 0 mm | - | 99 W/m² | - |
| 1777995532 | 12.78° C | 76% | 1015.9 hPa | 0 mm | - | 74 W/m² | - |
| 1777995229 | 12.78° C | 75% | 1015.9 hPa | 0 mm | - | 63 W/m² | - |
| 1777994926 | 12.78° C | 75% | 1015.8 hPa | 0 mm | - | 58 W/m² | - |
| 1777994623 | 12.78° C | 74% | 1015.9 hPa | 0 mm | - | 56 W/m² | - |
| 1777994317 | 12.78° C | 75% | 1015.7 hPa | 0 mm | - | 66 W/m² | - |
| 1777994014 | 12.78° C | 75% | 1015.6 hPa | 0 mm | - | 67 W/m² | - |
| 1777993711 | 12.78° C | 75% | 1015.8 hPa | 0 mm | - | 68 W/m² | - |
| 1777993408 | 12.78° C | 75% | 1015.6 hPa | 0 mm | - | 61 W/m² | - |
* Rain latest hour (hover to see other rain measurements)
** Current wind speed in m/s (hover to see current wind gust speed)